Location: Elstree
(51.6403°N, 0.2969°W)
Time: 14:21:08
(UTC+00:00)

Cosmos 1354 Rocket - Pass Details

Date: 20 June 2021
Orbit: 764 x 783 km, 74.0° (Epoch: 25 July)

Event Time Altitude Azimuth Distance (km) Brightness Sun altitude
Rises 23:24:46 0° 329° (NNW) 3,284 8.6 -14.5°
Reaches altitude 10° 23:27:22 10° 320° (NW) 2,352 7.4 -14.5°
Maximum altitude 23:32:05 33° 258° (WSW) 1,296 5.1 -14.6°
Enters shadow 23:35:21 17° 205° (SSW) 1,872 5.5 -14.7°
